SCP
0 0 0 0 0 0 0 0 0 0 0 0 0 0 0 0 0 0 0 0 0 0 0 0 0 0 0 0 0 0 0 0 0 0 0 0 0 0 0 0 0 0 0
0 0 0 0 0 0 0 0 0 0 0 0 0 0 0 0 0 0 0 0 0 0 0 0 0 0 0 0 0 0 0 0 0 0 0 0 0 0 0 0 0 0 0
0 0 0 0 0 0 0 0 0 0 0 0 0 0 0 0 0 0 0 0 0 0 0 0 0 0 0 0 0 0 0 0 0 0 0 0 0 0 0 0 0 0 0
0 0 0 0 0 0 0 0 0 0 0 0 0 0 0 0 0 0 0 0 0 0 0 0 0 0 0 0 0 0 0 0 0 0 0 0 0 0 0 0 0 0 0
0 0 0 0 0 0 0 0 0 0 0 0 0 0 0 0 0 0 0 0 0 0 0 0 0 0 0 0 0 0 0 0 0 0 0 0 0 0 0 0 0 0 0
0 0 0 0 0 0 0 0 0 0 0 0 0 0 0 0 0 0 0 0 0 0 0 0 0 0 0 0 0 0 0 0 0 0 0 0 0 0 0 0 0 0 0
0 0 0 0 0 0 0 0 0 0 0 0 0 0 0 0 0 0 0 0 0 0 0 0 0 0 0 0 0 0 0 0 0 0 0 0 0 0 0 0 0 0 0
0 0 0 0 0 0 0 0 0 0 0 0 0 0 0 0 0 0 0 0 0 0 0 0 0 0 0 0 0 0 0 0 0 0 0 0 0 0 0 0 0 0 0
0 0 0 0 0 0 0 0 0 0 0 0 0 0 0 0 0 0 0 0 0 0 0 0 0 0 0 0 0 0 0 0 0 0 0 0 0 0 0 0 0 0 0
0 0 0 0 0 0 0 0 0 0 0 0 0 0 0 0 0 0 0 0 0 0 0 0 0 0 0 0 0 0 0 0 0 0 0 0 0 0 0 0 0 0 0
0 0 0 0 0 0 0 0 0 0 0 0 0 0 0 0 0 0 0 0 0 0 0 0 0 0 0 0 0 0 0 0 0 0 0 0 0 0 0 0 0 0 0
0 0 0 0 0 0 0 0 0 0 0 0 0 0 0 0 0 0 0 0 0 0 0 0 0 0 0 0 0 0 0 0 0 0 0 0 0 0 0 0 0 0 0
0 0 0 0 0 0 0 0 0 0 0 0 0 0 0 0 0 0 0 0 0 0 0 0 0 0 0 0 0 0 0 0 0 0 0 0 0 0 0 0 0 0 0
0 0 0 0 0 0 0 0 0 0 0 0 0 0 0 0 0 0 0 0 0 0 0 0 0 0 0 0 0 0 0 0 0 0 0 0 0 0 0 0 0 0 0
0 0 0 0 0 0 0 0 0 0 0 0 0 0 0 0 0 0 0 0 0 0 0 0 0 0 0 0 0 0 0 0 0 0 0 0 0 0 0 0 0 0 0
0 0 0 0 0 0 0 0 0 0 0 0 0 0 0 0 0 0 0 0 0 0 0 0 0 0 0 0 0 0 0 0 0 0 0 0 0 0 0 0 0 0 0
0 0 0 0 0 0 0 0 0 0 0 0 0 0 0 0 0 0 0 0 0 0 0 0 0 0 0 0 0 0 0 0 0 0 0 0 0 0 0 0 0 0 0
0 0 0 0 0 0 0 0 0 0 0 0 0 0 0 0 0 0 0 0 0 0 0 0 0 0 0 0 0 0 0 0 0 0 0 0 0 0 0 0 0 0 0
0 0 0 0 0 0 0 0 0 0 0 0 0 0 0 0 0 0 0 0 0 0 0 0 0 0 0 0 0 0 0 0 0 0 0 0 0 0 0 0 0 0 0
0 0 0 0 0 0 0 0 0 0 0 0 0 0 0 0 0 0 0 0 0 0 0 0 0 0 0 0 0 0 0 0 0 0 0 0 0 0 0 0 0 0 0
0 0 0 0 0 0 0 0 0 0 0 0 0 0 0 0 0 0 0 0 0 0 0 0 0 0 0 0 0 0 0 0 0 0 0 0 0 0 0 0 0 0 0
0 0 0 0 0 0 0 0 0 0 0 0 0 0 0 0 0 0 0 0 0 0 0 0 0 0 0 0 0 0 0 0 0 0 0 0 0 0 0 0 0 0 0
0 0 0 0 0 0 0 0 0 0 0 0 0 0 0 0 0 0 0 0 0 0 0 0 0 0 0 0 0 0 0 0 0 0 0 0 0 0 0 0 0 0 0
0 0 0 0 0 0 0 0 0 0 0 0 0 0 0 0 0 0 0 0 0 0 0 0 0 0 0 0 0 0 0 0 0 0 0 0 0 0 0 0 0 0 0
0 0 0 0 0 0 0 0 0 0 0 0 0 0 0 0 0 0 0 0 0 0 0 0 0 0 0 0 0 0 0 0 0 0 0 0 0 0 0 0 0 0 0
0 0 0 0 0 0 0 0 0 0 0 0 0 0 0 0 0 0 0 0 0 0 0 0 0 0 0 0 0 0 0 0 0 0 0 0 0 0 0 0 0 0 0
Wind_Speed
2 2 1 1 2 2 1 1 1 1 1 1 1 0 1 1 1 2 2 5 5 4 4 4 4 5 5 6 6 6 6 6 6 6 6 6 6 5 5 5 5 5 5
2 2 2 2 2 2 2 2 2 2 1 1 1 1 0 1 1 2 3 3 4 4 3 3 3 4 5 5 6 6 6 6 6 5 5 5 5 5 4 4 5 5 4
3 2 2 2 2 2 3 2 2 2 2 1 1 2 1 0 1 2 3 3 2 3 3 3 3 3 4 4 5 5 5 6 6 6 5 5 4 4 4 4 4 4 3
4 3 2 2 2 2 2 2 2 2 1 1 1 1 1 1 0 1 2 3 2 2 2 3 3 3 3 4 4 5 5 5 6 6 5 5 4 4 4 3 3 3 3
4 3 2 2 2 2 2 2 2 1 1 1 1 1 1 1 1 0 1 2 2 2 2 3 3 3 2 3 4 4 4 5 5 5 5 5 4 3 3 3 3 3 3
4 3 2 3 2 2 2 2 2 2 1 1 1 1 1 1 1 0 0 1 2 2 3 3 2 2 3 3 3 3 3 4 4 5 4 4 3 3 3 2 2 3 3
4 3 2 3 2 2 2 2 2 1 1 1 1 1 2 1 1 1 0 1 1 1 2 3 2 2 2 2 3 3 3 3 4 4 4 4 3 2 2 2 2 2 2
4 3 3 2 2 2 2 2 2 1 1 1 0 0 1 1 2 2 1 1 1 1 1 2 3 3 2 2 2 3 3 3 3 4 4 4 3 3 3 3 3 3 2
4 4 3 2 2 2 2 2 1 2 2 2 1 1 1 2 1 1 2 2 2 1 1 1 2 3 3 3 2 2 3 3 3 3 4 4 4 4 3 3 3 2 2
4 4 3 3 2 2 2 3 2 2 2 2 2 2 2 1 1 1 1 1 2 1 1 1 1 2 3 3 3 3 3 3 3 4 4 4 5 5 5 4 3 3 2
3 4 3 3 3 2 3 3 3 2 2 2 2 2 2 2 2 1 2 1 1 1 1 1 1 1 2 3 3 3 4 4 4 4 4 4 5 5 6 5 4 4 3
3 4 4 3 3 3 3 3 3 3 3 3 2 2 2 2 2 2 2 2 2 2 2 2 2 2 2 2 3 4 4 4 3 4 5 5 5 5 5 5 5 4 3
4 4 4 3 3 3 3 3 3 4 3 3 3 3 3 3 2 2 2 2 2 2 2 2 2 2 2 2 2 4 4 4 3 4 5 5 4 4 4 4 5 5 4
4 5 5 4 4 4 4 3 3 4 4 4 4 3 3 3 3 2 2 2 2 2 2 3 1 2 2 2 2 3 3 4 4 4 4 4 3 3 3 4 4 3 4
5 5 5 5 5 4 4 4 4 4 4 4 4 4 4 3 3 3 3 3 3 3 4 3 2 2 2 1 2 2 2 3 4 4 4 3 3 3 3 3 3 3 3
5 6 6 6 5 5 5 4 4 4 5 5 4 5 5 3 3 3 3 3 3 3 3 2 2 2 2 1 2 2 2 3 4 3 3 4 4 4 4 3 3 3 3
6 6 6 6 6 6 5 5 5 5 6 6 5 5 6 5 4 3 3 3 3 3 4 2 1 2 2 2 1 1 2 2 3 3 3 4 4 4 5 4 4 3 3
6 6 6 6 7 6 6 6 6 6 6 6 6 6 6 5 5 4 4 4 3 3 3 4 2 2 3 4 3 2 2 2 2 3 4 4 4 4 4 4 3 3 3
7 7 6 7 7 7 6 7 7 7 7 7 7 7 7 6 6 5 4 4 3 3 3 4 3 2 2 3 3 2 2 2 2 2 3 3 3 4 4 3 3 3 3
7 7 7 7 7 7 7 7 7 6 6 7 7 7 7 7 7 6 5 5 4 4 4 4 3 3 3 2 3 3 2 2 2 1 2 2 2 3 3 3 3 3 3
8 8 7 7 7 7 7 7 6 6 6 6 6 6 6 7 8 7 5 5 5 4 4 4 4 3 3 3 3 3 3 2 2 1 2 2 2 2 2 3 3 4 4
7 7 7 7 7 7 10 11 8 6 6 6 6 6 6 6 7 9 9 8 7 7 6 6 5 5 5 4 3 3 3 2 2 2 2 2 2 2 2 2 3 4 4
7 7 7 7 7 8 11 10 9 6 5 5 6 5 5 5 6 5 6 7 7 8 9 7 7 7 6 5 5 4 4 3 3 2 2 2 2 2 2 2 3 4 4
7 7 7 7 7 8 10 9 9 6 4 5 5 6 6 5 5 5 4 4 4 5 6 6 6 6 6 5 6 5 5 3 1 1 2 2 2 2 1 2 2 3 3
7 7 7 7 7 7 9 9 8 4 4 4 5 5 5 5 6 6 4 4 3 3 4 5 7 7 7 7 5 3 3 3 3 2 2 2 1 1 1 2 2 2 2
7 7 7 6 6 6 9 9 8 3 3 3 3 4 5 5 5 5 5 5 5 4 3 3 3 4 4 5 6 5 5 5 3 2 2 2 2 1 1 1 1 1 2
Wind_Direction
8 355 359 357 347 341 330 308 303 305 302 301 308 226 170 144 123 117 110 115 114 119 127 140 151 149 146 149 150 144 140 141 139 136 134 130 125 121 120 121 122 114 111
5 355 352 355 345 335 328 327 332 331 331 337 344 354 48 133 133 126 124 123 117 118 128 140 150 154 154 156 156 156 155 155 157 148 141 139 137 134 130 128 122 120 119
4 353 353 352 343 339 340 343 343 348 348 356 359 340 348 47 123 138 134 131 127 124 129 146 151 153 159 160 164 161 159 160 161 159 153 147 150 149 143 136 131 131 132
2 359 357 345 340 341 343 342 345 347 343 351 345 329 344 6 51 134 133 131 135 142 149 148 145 148 161 171 171 178 176 171 164 161 162 161 158 154 157 157 153 146 145
359 356 351 338 337 339 339 329 335 340 344 346 331 334 345 340 341 55 109 127 134 140 145 157 154 151 155 174 182 184 181 173 168 164 159 151 151 156 166 174 167 159 155
351 350 348 336 343 344 334 332 327 339 338 348 337 335 336 311 323 302 148 127 135 144 150 148 157 172 161 168 180 184 181 172 171 159 151 147 151 159 164 166 177 172 164
343 346 344 341 341 337 321 322 332 341 319 348 4 335 308 280 255 254 185 141 141 147 148 144 143 145 164 161 154 159 164 161 167 172 163 158 154 154 171 175 178 172 177
337 337 341 335 332 325 323 327 333 317 287 298 238 257 284 283 265 233 209 198 190 171 153 150 145 149 143 149 138 152 167 178 181 176 176 175 177 186 193 194 188 187 188
333 330 328 329 326 324 302 297 296 288 272 273 267 208 201 226 296 258 221 209 192 184 184 167 161 163 160 149 149 160 164 176 186 188 191 198 196 197 205 209 205 197 202
329 327 327 327 317 309 301 289 284 276 270 267 281 276 268 218 200 270 277 232 212 209 201 183 165 165 160 151 147 149 163 176 194 209 212 215 214 212 214 213 214 215 210
324 325 323 322 320 310 301 290 278 267 261 256 258 280 286 283 246 210 247 264 264 248 226 218 196 182 171 156 157 157 166 181 200 216 225 226 229 226 225 222 221 223 219
314 317 313 312 307 302 296 293 276 263 257 257 259 257 254 240 241 229 237 248 248 246 235 229 209 189 179 161 165 161 172 190 206 225 233 234 234 229 226 226 224 228 228
310 308 310 300 298 292 290 288 283 271 252 243 242 247 256 257 248 247 235 250 257 257 227 229 215 187 181 172 168 157 179 193 207 223 234 239 243 234 227 231 233 234 233
300 301 299 291 286 284 284 280 279 272 262 245 245 242 249 257 252 231 227 220 249 262 240 227 221 196 186 177 168 170 186 198 213 227 238 244 247 235 229 229 230 229 234
303 302 298 292 282 277 273 270 270 270 263 250 239 239 244 247 249 236 229 209 209 231 240 225 217 210 198 181 175 192 188 197 208 215 226 232 226 221 219 222 227 235 243
305 301 296 291 286 275 268 264 267 266 261 250 241 237 238 239 240 233 228 238 227 222 241 227 224 220 199 218 203 188 192 193 206 216 223 222 218 219 219 221 227 237 234
302 296 296 289 284 278 270 261 258 260 258 255 247 238 237 233 235 229 227 233 234 219 237 253 229 205 192 201 215 209 210 198 201 213 219 219 221 224 223 217 216 221 228
302 296 294 291 285 280 273 264 259 255 251 249 243 236 236 234 234 227 221 226 228 219 210 229 230 210 209 203 198 206 223 223 205 211 215 217 219 222 214 212 209 212 219
303 298 292 287 283 277 272 266 259 255 248 245 240 236 234 230 233 232 223 226 225 224 209 209 223 217 212 200 192 215 219 223 235 220 207 211 221 223 221 220 216 211 209
303 298 292 284 282 277 272 267 264 258 252 248 242 237 234 230 229 224 221 222 216 211 210 206 212 214 210 198 188 202 221 223 235 220 220 227 233 227 230 230 225 216 211
306 300 294 286 282 277 269 266 261 260 251 248 248 242 238 237 237 229 226 214 207 206 207 208 210 209 206 193 203 202 212 214 224 204 203 223 214 209 222 236 229 220 216
307 302 297 292 284 280 280 275 271 260 249 242 247 244 239 235 237 238 240 233 221 211 206 209 213 212 212 206 200 198 196 207 231 216 195 226 189 202 220 219 233 226 221
313 309 306 303 297 291 286 278 272 269 249 241 243 242 241 236 234 226 232 235 236 236 227 216 211 215 214 208 198 205 209 216 227 204 185 232 201 211 226 243 238 230 227
315 311 310 308 306 305 302 292 284 274 258 246 243 240 236 229 222 220 216 223 236 243 239 230 216 220 219 214 206 209 209 214 225 215 187 223 216 215 242 236 235 234 231
316 314 312 313 311 311 308 296 289 275 266 258 248 244 236 225 221 221 211 214 231 246 250 231 228 224 226 232 223 195 190 194 229 231 204 187 198 224 234 228 232 245 244
313 315 315 314 312 311 313 307 299 278 271 267 262 251 241 236 226 225 210 206 218 225 220 225 227 229 222 225 235 220 199 203 209 226 204 169 173 147 264 250 221 224 238